星链-32620 (STARLINK-32620)

导读

STARLINK-32620是美国SpaceX公司于2024年11月11日发射的第二代星链卫星,属于星链(Starlink)全球低轨卫星互联网星座的组网卫星。星链二代卫星作为现役主力,单星设计寿命5-7年,运行在近地轨道,配备激光通信终端,可实现高速星间数据传输,为全球用户提供低延迟宽带互联网服务,覆盖包括航空、航海、应急通信等多元场景,助力星链实现全球化覆盖。

Basic Information
目录编号:
61928
目录名称:
STARLINK-32620
国际标识:
2024-207S
轨道中心:
EARTH
卫星名称:
星链-32620
卫星全名:
星链-32620 (STARLINK-32620)
卫星状态:
在轨 (已飞行583 天)
发射日期:
2024-11-11 UTC
国别 :
美国 (US)
星等 :
--
Orbit Information
数据来源 国际轨道数据 AOE轨道数据
星历时间 2026-06-17T08:31:55+0800
20小时前
查看轨道信息
2026-06-16T00:00:00+0800
2天前
查看轨道信息
半长轴 6861.145km 6861.086km
偏心率 0.0006328 0.0002758
轨道倾角 43.005° 43.001°
近地点辐角 278.514° 270.562°
升交点赤经 80.767° 88.423°
平近点角 81.499° 186.547°
近地点 478.666km 481.056km
远地点 487.35km 484.842km
周期 94.266分钟 94.265分钟
每日圈数 15.275939 15.276135
Detailed Information
固有亮度:
5
最大亮度:
2.5
卫星平台:
Starlink V1.0
覆盖范围:
全球
运营商:
太空探索技术公司
运营商所在国:
美国
制造商(研发单位):
太空探索技术公司
制造商所在国:
美国
使用方式:
暂无
Satellite Introduction
Starlink 计划是 SpaceX 推出的全球卫星互联网项目,通过发射低轨道卫星,为全球尤其是偏远地区提供高速、低延迟的互联网服务。自 2019 年起,Starlink 已部署数千颗卫星,旨在缩小全球数字鸿沟,推动互联网普及。该项目还为军事、航空等行业提供通信支持,带来广泛经济效益。
2D Orbit Map
3D Orbit Map
Orbit Altitude Analysis Chart
Orbit Inclination Analysis Chart
Orbit Comprehensive Analysis Chart
View Comprehensive Chart